Location: �quirre
(50.4736°N, 2.2351°E)
Time: 04:22:25
(UTC+00:00)

Cosmos 1758 Rocket - Pass Details

Date: 07 August 2020
Orbit: 602 x 635 km, 82.5° (Epoch: 19 September)

Event Time Altitude Azimuth Distance (km) Brightness Sun altitude
Rises 03:24:55 0° 351° (N) 2,871 7.4 -9.2°
Reaches altitude 10° 03:27:09 10° 353° (N) 1,961 6.6 -8.9°
Maximum altitude 03:31:29 71° 78° (ENE) 641 3.8 -8.4°
Drops below altitude 10° 03:35:47 10° 163° (SSE) 1,948 5.9 -7.8°
Sets 03:37:59 0° 166° (SSE) 2,849 6.7 -7.5°
